Location: Conjunto Santa Maria
(19.9513°S, 43.9599°W)
Time: 12:47:43
(UTC+00:00)

Cosmos 1408 - Pass Details

Date: 21 January 2021
Orbit: 469 x 491 km, 82.6° (Epoch: 03 March)

Event Time Altitude Azimuth Distance (km) Brightness Sun altitude
Rises 22:29:08 0° 182° (S) 2,580 6.7 -11.2°
Reaches altitude 10° 22:31:17 10° 180° (S) 1,688 5.7 -11.7°
Maximum altitude 22:34:58 73° 95° (E) 513 2.5 -12.4°
Drops below altitude 10° 22:38:34 10° 10° (N) 1,653 4.9 -13.2°
Enters shadow 22:38:51 - 9° (N) 1,768 5.1 -13.2°
